Precipitable_Water
1.31 1.27 1.32 1.34 1.40 1.49 1.58 1.62 1.67 1.74 1.77 1.77 1.76 1.80 1.74 1.74 1.67 1.70 1.60 1.66 1.65 1.62 1.54 1.57 1.61 1.56 1.53 1.48 1.54 1.59 1.55 1.51 1.54 1.55 1.48 1.45 1.46 1.49 1.68 1.66 1.54 1.47 1.50 1.47 1.52 1.55 1.55 1.47 1.47 1.47 1.51 1.44 1.40 1.41 1.40 1.42 1.41 1.40 1.38 1.35 1.35 1.40 1.37 1.31 1.20 1.16 1.30 1.46 1.40 1.40 1.47 1.40 1.32 1.47 1.44 1.42 1.37 1.41 1.42 1.44 1.47 1.47 1.45 1.41 1.39
1.34 1.31 1.31 1.34 1.32 1.37 1.44 1.54 1.59 1.65 1.71 1.74 1.71 1.76 1.75 1.72 1.73 1.72 1.67 1.64 1.67 1.70 1.64 1.61 1.63 1.63 1.63 1.62 1.63 1.67 1.67 1.62 1.63 1.60 1.56 1.52 1.50 1.51 1.47 1.53 1.54 1.45 1.47 1.51 1.53 1.50 1.51 1.47 1.45 1.48 1.51 1.43 1.40 1.40 1.43 1.41 1.41 1.44 1.46 1.45 1.47 1.48 1.52 1.38 1.30 1.21 1.14 1.33 1.37 1.46 1.38 1.49 1.37 1.48 1.37 1.32 1.39 1.42 1.45 1.47 1.46 1.42 1.42 1.42 1.40
1.36 1.40 1.35 1.33 1.33 1.34 1.37 1.44 1.48 1.53 1.60 1.72 1.65 1.71 1.73 1.73 1.75 1.69 1.68 1.70 1.67 1.70 1.71 1.66 1.68 1.67 1.64 1.69 1.67 1.70 1.71 1.64 1.60 1.64 1.65 1.61 1.57 1.57 1.62 1.63 1.53 1.47 1.46 1.42 1.44 1.49 1.48 1.45 1.44 1.45 1.46 1.41 1.42 1.39 1.37 1.38 1.41 1.36 1.37 1.41 1.37 1.35 1.33 1.31 1.26 1.20 1.18 1.23 1.35 1.31 1.36 1.42 1.37 1.37 1.44 1.45 1.46 1.49 1.46 1.43 1.38 1.34 1.38 1.40 1.36
1.39 1.39 1.37 1.36 1.34 1.34 1.30 1.30 1.40 1.42 1.44 1.57 1.63 1.66 1.72 1.75 1.83 1.72 1.71 1.75 1.72 1.69 1.72 1.72 1.74 1.71 1.62 1.70 1.69 1.64 1.69 1.64 1.65 1.64 1.65 1.64 1.62 1.58 1.62 1.66 1.65 1.62 1.56 1.57 1.60 1.56 1.53 1.51 1.50 1.50 1.50 1.46 1.49 1.49 1.45 1.43 1.44 1.45 1.43 1.42 1.37 1.38 1.43 1.42 1.40 1.32 1.30 1.21 1.32 1.33 1.40 1.36 1.40 1.46 1.51 1.51 1.48 1.47 1.41 1.38 1.44 1.37 1.39 1.41 1.42
1.40 1.39 1.36 1.33 1.34 1.33 1.29 1.27 1.26 1.31 1.32 1.41 1.51 1.64 1.69 1.75 1.74 1.78 1.82 1.79 1.78 1.75 1.70 1.75 1.74 1.70 1.64 1.66 1.69 1.63 1.68 1.65 1.64 1.68 1.69 1.68 1.64 1.61 1.63 1.60 1.54 1.55 1.56 1.57 1.57 1.56 1.56 1.55 1.57 1.53 1.48 1.41 1.43 1.41 1.48 1.51 1.54 1.49 1.46 1.51 1.54 1.54 1.54 1.52 1.47 1.43 1.33 1.26 1.30 1.42 1.44 1.43 1.54 1.54 1.56 1.47 1.45 1.43 1.45 1.40 1.43 1.43 1.45 1.45 1.41
1.45 1.40 1.38 1.33 1.29 1.30 1.35 1.29 1.24 1.23 1.23 1.24 1.28 1.40 1.58 1.76 1.85 1.77 1.80 1.75 1.72 1.77 1.74 1.72 1.75 1.73 1.66 1.70 1.70 1.71 1.71 1.70 1.69 1.68 1.72 1.73 1.69 1.66 1.68 1.62 1.63 1.59 1.58 1.57 1.53 1.55 1.50 1.48 1.47 1.47 1.48 1.44 1.43 1.47 1.56 1.56 1.56 1.47 1.42 1.42 1.49 1.49 1.46 1.46 1.48 1.46 1.44 1.39 1.39 1.39 1.48 1.44 1.47 1.53 1.60 1.53 1.45 1.42 1.42 1.56 1.58 1.52 1.42 1.38 1.40
1.49 1.50 1.46 1.33 1.28 1.22 1.26 1.33 1.32 1.28 1.22 1.22 1.26 1.29 1.31 1.40 1.60 1.75 1.83 1.80 1.72 1.71 1.78 1.77 1.79 1.76 1.73 1.71 1.70 1.73 1.73 1.73 1.74 1.67 1.69 1.75 1.77 1.70 1.67 1.69 1.63 1.64 1.62 1.59 1.61 1.61 1.60 1.58 1.57 1.57 1.54 1.51 1.47 1.48 1.53 1.54 1.54 1.52 1.54 1.53 1.52 1.46 1.44 1.47 1.51 1.53 1.49 1.40 1.40 1.38 1.37 1.49 1.49 1.39 1.49 1.57 1.54 1.59 1.52 1.45 1.33 1.34 1.34 1.34 1.30
1.65 1.63 1.60 1.46 1.35 1.27 1.22 1.25 1.29 1.33 1.34 1.28 1.28 1.32 1.34 1.34 1.36 1.40 1.53 1.56 1.59 1.69 1.71 1.74 1.77 1.77 1.77 1.75 1.73 1.74 1.76 1.73 1.72 1.73 1.67 1.66 1.77 1.85 1.71 1.69 1.69 1.67 1.63 1.63 1.62 1.59 1.61 1.62 1.61 1.67 1.63 1.60 1.56 1.57 1.55 1.56 1.58 1.56 1.63 1.63 1.63 1.59 1.48 1.44 1.43 1.41 1.35 1.31 1.27 1.25 1.29 1.29 1.34 1.46 1.50 1.48 1.45 1.37 1.38 1.30 1.16 1.16 1.22 1.27 1.22
1.77 1.76 1.74 1.68 1.60 1.50 1.40 1.32 1.30 1.30 1.28 1.30 1.28 1.29 1.36 1.39 1.40 1.41 1.39 1.40 1.46 1.51 1.56 1.71 1.74 1.70 1.75 1.79 1.77 1.74 1.70 1.69 1.71 1.79 1.71 1.68 1.66 1.51 1.65 1.77 1.71 1.60 1.60 1.62 1.63 1.58 1.55 1.59 1.64 1.66 1.69 1.68 1.68 1.60 1.53 1.46 1.40 1.37 1.42 1.40 1.36 1.33 1.33 1.36 1.36 1.33 1.30 1.26 1.22 1.28 1.27 1.26 1.30 1.32 1.33 1.31 1.24 1.19 1.25 1.25 1.18 1.17 1.14 1.07 1.13
1.82 1.80 1.79 1.77 1.79 1.80 1.70 1.56 1.45 1.40 1.34 1.35 1.35 1.31 1.33 1.33 1.41 1.45 1.42 1.39 1.41 1.51 1.50 1.50 1.54 1.62 1.68 1.70 1.75 1.75 1.65 1.76 1.75 1.78 1.79 1.69 1.61 1.57 1.66 1.71 1.80 1.76 1.55 1.50 1.51 1.57 1.60 1.63 1.64 1.64 1.62 1.58 1.60 1.51 1.37 1.26 1.26 1.23 1.25 1.30 1.31 1.31 1.29 1.26 1.24 1.22 1.20 1.15 1.15 1.15 1.11 1.10 1.10 1.18 1.21 1.20 1.18 1.18 1.15 1.18 1.05 1.04 1.05 1.09 1.19
1.97 1.88 1.85 1.88 1.89 1.89 1.89 1.83 1.74 1.60 1.51 1.47 1.44 1.44 1.42 1.41 1.45 1.43 1.40 1.45 1.45 1.48 1.46 1.43 1.44 1.51 1.60 1.67 1.68 1.67 1.66 1.66 1.69 1.71 1.74 1.65 1.53 1.52 1.53 1.65 1.82 1.85 1.58 1.44 1.40 1.38 1.44 1.47 1.50 1.64 1.64 1.65 1.60 1.50 1.36 1.29 1.27 1.22 1.20 1.19 1.20 1.15 1.10 1.08 1.11 1.14 1.09 1.05 1.05 1.02 0.97 0.96 1.01 1.05 0.97 0.93 1.01 1.06 1.09 1.09 1.08 1.08 1.10 1.11 1.07
2.06 2.04 2.00 2.01 2.02 2.00 1.98 1.97 1.93 1.88 1.81 1.66 1.64 1.67 1.62 1.60 1.51 1.51 1.52 1.53 1.51 1.49 1.45 1.41 1.44 1.43 1.48 1.55 1.59 1.69 1.69 1.59 1.58 1.60 1.62 1.60 1.54 1.46 1.46 1.54 1.53 1.45 1.62 1.61 1.50 1.46 1.43 1.46 1.50 1.56 1.65 1.76 1.65 1.76 1.74 1.65 1.57 1.41 1.30 1.25 1.22 1.19 1.17 1.09 1.01 0.97 0.96 0.92 0.91 0.93 0.91 0.86 0.89 0.96 0.97 0.99 1.04 1.09 1.13 1.15 1.20 1.23 1.23 1.21 1.18
1.99 2.06 2.10 2.10 2.09 2.07 2.07 2.04 1.99 1.98 2.01 2.01 1.94 1.79 1.82 1.72 1.65 1.61 1.55 1.56 1.56 1.45 1.42 1.43 1.37 1.35 1.34 1.35 1.39 1.52 1.61 1.64 1.60 1.58 1.55 1.51 1.49 1.44 1.38 1.36 1.38 1.44 1.58 1.57 1.49 1.65 1.66 1.51 1.52 1.52 1.51 1.64 1.56 1.60 1.71 1.59 1.49 1.45 1.37 1.32 1.28 1.24 1.20 1.20 1.22 1.18 1.16 1.10 1.06 1.04 1.08 1.09 1.05 1.09 1.17 1.21 1.29 1.22 1.29 1.33 1.42 1.44 1.38 1.31 1.32
1.92 1.90 2.00 2.09 2.12 2.15 2.11 2.04 1.99 2.01 2.07 2.11 2.07 2.06 1.94 1.84 1.78 1.76 1.69 1.61 1.56 1.55 1.49 1.43 1.40 1.38 1.34 1.33 1.44 1.54 1.54 1.54 1.54 1.53 1.52 1.50 1.43 1.36 1.31 1.32 1.31 1.34 1.42 1.48 1.52 1.55 1.58 1.56 1.51 1.51 1.54 1.67 1.78 1.81 1.70 1.75 1.73 1.60 1.53 1.45 1.38 1.38 1.40 1.39 1.39 1.37 1.35 1.29 1.25 1.20 1.29 1.39 1.37 1.42 1.49 1.57 1.46 1.47 1.46 1.39 1.40 1.39 1.42 1.48 1.59
1.93 1.93 1.93 2.03 2.10 2.12 2.13 2.04 2.07 2.07 2.03 2.10 2.09 2.10 2.04 2.00 1.96 1.96 1.90 1.81 1.72 1.62 1.55 1.50 1.48 1.45 1.42 1.35 1.49 1.45 1.51 1.47 1.45 1.44 1.42 1.39 1.37 1.32 1.32 1.29 1.28 1.29 1.37 1.48 1.50 1.50 1.58 1.58 1.54 1.55 1.67 1.65 1.59 1.59 1.56 1.58 1.55 1.48 1.39 1.30 1.30 1.33 1.33 1.36 1.41 1.43 1.44 1.43 1.42 1.45 1.52 1.61 1.64 1.63 1.60 1.56 1.48 1.48 1.50 1.49 1.52 1.53 1.58 1.66 1.69
1.96 1.99 2.01 2.06 2.08 2.09 2.10 2.04 2.05 2.11 2.12 2.08 2.07 2.05 2.06 2.09 2.07 2.10 2.05 2.03 2.03 1.97 1.83 1.68 1.63 1.56 1.58 1.55 1.54 1.30 1.32 1.36 1.37 1.37 1.38 1.39 1.39 1.36 1.34 1.32 1.28 1.28 1.38 1.57 1.75 1.85 1.78 1.74 1.65 1.67 1.69 1.67 1.59 1.51 1.48 1.51 1.40 1.27 1.22 1.25 1.26 1.33 1.42 1.52 1.60 1.61 1.60 1.58 1.55 1.49 1.46 1.48 1.48 1.53 1.58 1.61 1.62 1.65 1.66 1.66 1.65 1.61 1.50 1.46 1.46
1.95 2.01 2.02 2.04 2.07 2.09 2.09 2.10 2.06 2.04 2.08 2.04 2.03 2.06 2.06 2.05 2.05 2.09 2.07 2.08 2.06 2.08 2.07 2.08 1.94 1.85 1.85 1.67 1.56 1.34 1.32 1.37 1.41 1.41 1.40 1.41 1.40 1.42 1.40 1.40 1.40 1.37 1.43 1.57 1.61 1.78 1.79 1.83 1.78 1.74 1.66 1.53 1.48 1.51 1.54 1.51 1.47 1.39 1.36 1.35 1.38 1.43 1.48 1.57 1.68 1.72 1.71 1.67 1.68 1.67 1.67 1.69 1.72 1.73 1.74 1.75 1.75 1.75 1.67 1.51 1.42 1.48 1.40 1.36 1.39
1.86 1.91 1.95 2.00 2.05 2.05 2.07 2.06 2.01 2.03 2.07 2.07 2.11 2.14 2.15 2.12 2.06 2.08 2.03 2.04 2.06 2.08 2.15 2.14 2.13 2.02 1.95 1.89 1.70 1.45 1.40 1.40 1.43 1.45 1.45 1.45 1.46 1.45 1.49 1.46 1.42 1.59 1.68 1.59 1.60 1.56 1.65 1.76 1.77 1.68 1.60 1.54 1.50 1.46 1.51 1.59 1.58 1.58 1.55 1.51 1.51 1.54 1.62 1.77 1.81 1.85 1.89 1.83 1.77 1.76 1.77 1.83 1.86 1.85 1.84 1.86 1.87 1.87 1.70 1.50 1.65 1.75 1.63 1.60 1.50
1.77 1.81 1.88 1.96 2.00 2.01 2.04 2.02 2.02 2.02 2.03 2.06 2.10 2.10 2.11 2.14 2.11 2.13 2.10 2.09 2.10 2.16 2.15 2.11 2.09 2.06 2.00 1.90 1.78 1.60 1.56 1.56 1.53 1.49 1.49 1.51 1.52 1.58 1.61 1.59 1.67 1.72 1.67 1.58 1.60 1.72 1.68 1.60 1.61 1.67 1.71 1.64 1.57 1.58 1.63 1.68 1.67 1.67 1.69 1.64 1.59 1.60 1.70 1.77 1.78 1.81 1.82 1.81 1.85 1.92 1.96 2.00 2.01 2.04 2.05 2.05 2.01 1.99 1.98 1.91 1.92 1.84 1.73 1.72 1.70
1.78 1.82 1.87 1.92 1.96 1.97 1.97 1.95 1.95 1.94 1.96 2.02 2.06 2.08 2.13 2.13 2.10 2.06 2.05 2.06 2.06 2.12 2.15 2.14 2.11 2.04 2.01 2.02 1.96 1.82 1.73 1.75 1.74 1.71 1.66 1.63 1.66 1.70 1.71 1.64 1.62 1.65 1.65 1.67 1.57 1.72 1.92 1.85 1.76 1.76 1.74 1.71 1.74 1.81 1.80 1.77 1.74 1.75 1.73 1.67 1.62 1.61 1.76 1.78 1.82 1.81 1.78 1.76 1.78 1.85 1.89 1.95 1.96 1.99 2.05 2.05 2.03 2.06 2.09 2.11 2.09 2.02 1.89 1.83 1.82
1.77 1.78 1.82 1.86 1.88 1.91 1.93 1.93 1.90 1.94 1.99 1.99 2.02 2.04 2.04 2.03 2.03 2.00 1.99 2.01 2.03 2.02 2.02 2.05 2.06 2.03 2.02 2.01 1.99 1.95 1.86 1.81 1.80 1.78 1.75 1.74 1.76 1.79 1.78 1.75 1.73 1.72 1.75 1.71 1.77 1.82 1.85 1.81 1.79 1.82 1.80 1.83 1.87 1.88 1.85 1.82 1.80 1.80 1.82 1.75 1.74 1.76 1.80 1.75 1.78 1.81 1.79 1.81 1.83 1.87 1.91 1.95 1.97 2.02 2.04 2.06 2.07 2.12 2.16 2.23 2.20 2.16 2.03 1.86 1.80
1.76 1.79 1.81 1.80 1.83 1.88 1.90 1.87 1.86 1.86 1.89 1.90 1.91 1.93 2.00 2.00 1.98 1.96 1.97 1.97 1.98 1.97 1.96 1.95 1.94 1.93 1.95 1.96 1.94 1.91 1.88 1.84 1.81 1.78 1.77 1.79 1.81 1.82 1.84 1.86 1.89 1.88 1.80 1.78 1.80 1.82 1.92 1.96 1.95 1.96 1.91 1.88 1.84 1.80 1.81 1.81 1.81 1.85 1.84 1.83 1.82 1.79 1.75 1.76 1.81 1.84 1.85 1.85 1.85 1.87 1.89 1.92 1.96 2.01 2.05 2.07 2.10 2.14 2.18 2.21 2.22 2.26 2.23 2.12 2.00
1.63 1.69 1.71 1.72 1.81 1.88 1.88 1.83 1.79 1.79 1.81 1.84 1.86 1.80 1.83 1.83 1.84 1.84 1.82 1.81 1.82 1.88 1.86 1.85 1.82 1.80 1.82 1.83 1.82 1.79 1.79 1.83 1.81 1.77 1.75 1.75 1.76 1.78 1.80 1.83 1.85 1.87 1.81 1.77 1.80 1.87 1.95 1.92 1.83 1.78 1.77 1.80 1.82 1.77 1.72 1.71 1.70 1.70 1.72 1.75 1.76 1.74 1.68 1.69 1.72 1.72 1.74 1.77 1.81 1.80 1.83 1.85 1.84 1.87 1.91 1.94 2.00 2.05 2.06 2.06 2.08 2.14 2.20 2.22 2.20
1.59 1.52 1.53 1.63 1.68 1.73 1.76 1.82 1.78 1.72 1.70 1.67 1.65 1.66 1.65 1.66 1.66 1.68 1.68 1.64 1.61 1.61 1.67 1.77 1.71 1.66 1.63 1.66 1.69 1.75 1.74 1.71 1.71 1.70 1.68 1.65 1.65 1.64 1.64 1.65 1.68 1.70 1.68 1.62 1.59 1.55 1.55 1.54 1.55 1.59 1.61 1.61 1.63 1.65 1.62 1.60 1.54 1.52 1.54 1.57 1.62 1.66 1.65 1.54 1.47 1.50 1.50 1.55 1.52 1.53 1.54 1.59 1.60 1.60 1.63 1.67 1.68 1.70 1.72 1.74 1.79 1.88 1.95 2.04 2.12
1.30 1.31 1.38 1.43 1.48 1.54 1.60 1.65 1.64 1.60 1.58 1.55 1.51 1.56 1.59 1.59 1.54 1.54 1.55 1.54 1.50 1.50 1.49 1.51 1.50 1.51 1.52 1.50 1.51 1.55 1.57 1.57 1.55 1.57 1.55 1.52 1.50 1.50 1.49 1.49 1.50 1.52 1.53 1.50 1.46 1.34 1.25 1.21 1.20 1.19 1.21 1.22 1.26 1.28 1.32 1.29 1.21 1.24 1.25 1.30 1.41 1.45 1.39 1.31 1.27 1.27 1.27 1.25 1.27 1.27 1.30 1.33 1.35 1.37 1.40 1.42 1.43 1.45 1.47 1.49 1.49 1.47 1.51 1.56 1.62
1.18 1.24 1.32 1.36 1.39 1.41 1.40 1.44 1.48 1.47 1.44 1.47 1.48 1.50 1.50 1.49 1.46 1.46 1.43 1.41 1.42 1.41 1.45 1.36 1.33 1.35 1.33 1.38 1.41 1.43 1.46 1.51 1.52 1.51 1.54 1.54 1.49 1.41 1.34 1.28 1.21 1.20 1.18 1.13 1.10 1.04 1.01 0.97 0.97 0.95 0.98 0.99 1.01 1.01 0.99 0.98 0.97 1.02 1.04 1.07 1.23 1.27 1.16 1.07 1.08 1.09 1.07 1.08 1.08 1.07 1.10 1.14 1.15 1.18 1.24 1.27 1.19 1.19 1.23 1.18 1.12 1.13 1.15 1.16 1.16
1.20 1.19 1.15 1.15 1.24 1.28 1.25 1.23 1.23 1.31 1.33 1.32 1.34 1.38 1.39 1.39 1.37 1.38 1.37 1.35 1.38 1.46 1.46 1.42 1.39 1.38 1.36 1.41 1.42 1.43 1.42 1.42 1.40 1.40 1.34 1.30 1.21 1.12 1.04 1.02 0.98 0.92 0.88 0.84 0.87 0.90 0.86 0.82 0.78 0.76 0.77 0.80 0.83 0.87 0.89 0.90 0.87 0.88 0.92 0.89 1.02 0.99 0.94 0.93 0.91 0.93 0.92 0.90 0.90 0.93 0.95 0.97 1.01 1.02 1.01 0.98 1.01 1.06 1.03 0.93 0.89 0.89 0.91 0.94 0.91
1.10 1.10 1.11 1.12 1.10 1.15 1.14 1.16 1.17 1.14 1.21 1.24 1.23 1.23 1.20 1.20 1.25 1.24 1.23 1.25 1.25 1.27 1.24 1.24 1.22 1.17 1.14 1.12 1.12 1.10 1.11 1.10 1.12 1.03 0.99 0.95 0.95 0.92 0.84 0.79 0.77 0.77 0.71 0.70 0.72 0.76 0.81 0.80 0.79 0.76 0.76 0.79 0.82 0.84 0.84 0.80 0.78 0.77 0.80 0.71 0.85 0.87 0.80 0.85 0.82 0.80 0.78 0.76 0.79 0.79 0.79 0.80 0.78 0.81 0.83 0.85 0.85 0.80 0.77 0.75 0.73 0.74 0.78 0.76 0.73
1.10 1.07 1.06 1.05 1.05 1.07 1.03 1.05 1.05 1.05 1.12 1.07 1.06 1.06 1.07 1.11 1.07 1.10 1.15 1.13 1.14 1.15 1.18 1.18 1.18 1.21 1.23 1.14 1.05 1.01 0.99 0.93 0.89 0.87 0.84 0.80 0.77 0.75 0.72 0.70 0.68 0.68 0.68 0.70 0.73 0.78 0.82 0.79 0.75 0.72 0.70 0.66 0.64 0.63 0.62 0.66 0.67 0.69 0.74 0.64 0.71 0.74 0.67 0.73 0.65 0.63 0.65 0.66 0.66 0.66 0.67 0.69 0.69 0.74 0.74 0.70 0.70 0.67 0.69 0.66 0.69 0.68 0.69 0.71 0.67
1.08 1.07 1.07 1.06 1.04 0.99 1.00 1.01 1.02 0.99 0.99 0.94 0.89 0.90 0.95 0.94 0.93 0.93 0.93 0.96 0.97 1.02 1.05 1.02 1.07 1.11 1.05 1.06 1.06 1.03 0.95 0.93 0.89 0.84 0.81 0.79 0.76 0.75 0.73 0.71 0.69 0.67 0.68 0.71 0.75 0.74 0.73 0.71 0.69 0.66 0.60 0.65 0.60 0.60 0.58 0.62 0.61 0.58 0.62 0.61 0.64 0.64 0.58 0.63 0.58 0.55 0.58 0.61 0.61 0.59 0.61 0.62 0.62 0.63 0.61 0.60 0.61 0.62 0.63 0.63 0.61 0.62 0.59 0.58 0.54
1.08 1.06 1.06 1.05 1.01 1.01 1.00 0.99 0.97 0.96 0.97 0.94 0.89 0.83 0.81 0.85 0.87 0.89 0.90 0.88 0.88 0.91 0.92 0.94 0.95 0.94 0.95 0.92 0.94 0.97 0.95 0.89 0.82 0.81 0.78 0.76 0.75 0.73 0.72 0.70 0.69 0.69 0.69 0.71 0.74 0.73 0.68 0.65 0.65 0.64 0.60 0.63 0.58 0.57 0.57 0.60 0.59 0.58 0.58 0.59 0.60 0.60 0.59 0.59 0.53 0.54 0.56 0.56 0.54 0.53 0.56 0.56 0.54 0.56 0.53 0.54 0.54 0.55 0.58 0.59 0.57 0.57 0.55 0.53 0.51
1.05 1.05 1.06 1.08 1.02 1.02 1.02 1.01 0.99 0.99 0.95 0.94 0.90 0.88 0.84 0.80 0.82 0.89 0.88 0.86 0.84 0.84 0.84 0.85 0.87 0.87 0.87 0.88 0.88 0.87 0.85 0.82 0.79 0.77 0.76 0.75 0.73 0.72 0.71 0.70 0.68 0.69 0.69 0.73 0.71 0.69 0.67 0.66 0.63 0.61 0.60 0.60 0.59 0.58 0.58 0.57 0.57 0.58 0.58 0.58 0.58 0.61 0.59 0.56 0.54 0.57 0.56 0.54 0.50 0.52 0.54 0.53 0.52 0.50 0.49 0.51 0.50 0.52 0.54 0.53 0.55 0.54 0.53 0.53 0.53
1.03 1.04 1.08 1.07 1.03 1.02 1.06 1.03 1.01 1.00 0.97 0.94 0.91 0.87 0.82 0.82 0.77 0.77 0.83 0.87 0.86 0.84 0.84 0.84 0.83 0.83 0.83 0.84 0.83 0.80 0.80 0.80 0.79 0.77 0.75 0.73 0.73 0.70 0.70 0.70 0.69 0.67 0.69 0.69 0.66 0.64 0.63 0.62 0.62 0.60 0.59 0.57 0.58 0.55 0.55 0.55 0.54 0.55 0.55 0.55 0.54 0.57 0.58 0.57 0.59 0.59 0.55 0.53 0.52 0.53 0.54 0.53 0.51 0.50 0.50 0.50 0.49 0.48 0.49 0.50 0.51 0.51 0.51 0.48 0.47
1.10 1.10 1.06 1.01 1.03 1.01 1.02 1.02 1.01 1.01 0.98 0.97 0.96 0.93 0.89 0.85 0.80 0.79 0.74 0.72 0.76 0.79 0.81 0.80 0.79 0.78 0.77 0.77 0.76 0.76 0.76 0.75 0.74 0.74 0.73 0.72 0.68 0.67 0.67 0.68 0.71 0.69 0.65 0.61 0.62 0.59 0.59 0.57 0.58 0.57 0.56 0.57 0.57 0.55 0.56 0.55 0.56 0.56 0.57 0.56 0.56 0.58 0.57 0.57 0.58 0.56 0.53 0.52 0.51 0.53 0.53 0.50 0.50 0.49 0.48 0.47 0.49 0.49 0.48 0.48 0.49 0.48 0.47 0.45 0.43
1.15 1.11 1.08 1.08 1.10 1.06 1.05 1.03 1.00 0.99 0.97 0.97 0.94 0.90 0.91 0.91 0.87 0.81 0.77 0.75 0.75 0.72 0.71 0.75 0.76 0.75 0.74 0.73 0.71 0.71 0.70 0.70 0.68 0.69 0.68 0.66 0.62 0.61 0.66 0.66 0.69 0.72 0.71 0.69 0.63 0.59 0.56 0.58 0.56 0.57 0.56 0.54 0.55 0.54 0.53 0.53 0.54 0.53 0.53 0.52 0.54 0.55 0.53 0.56 0.55 0.53 0.50 0.50 0.53 0.53 0.51 0.50 0.51 0.51 0.49 0.47 0.46 0.46 0.45 0.46 0.47 0.47 0.45 0.43 0.43
1.07 1.07 1.05 1.03 1.04 1.03 1.02 1.01 1.00 0.99 0.98 0.97 0.96 0.92 0.92 0.88 0.86 0.84 0.83 0.83 0.82 0.78 0.78 0.81 0.76 0.73 0.74 0.72 0.70 0.69 0.68 0.68 0.67 0.64 0.62 0.61 0.58 0.60 0.59 0.62 0.63 0.62 0.58 0.62 0.58 0.56 0.54 0.55 0.54 0.54 0.55 0.55 0.56 0.56 0.55 0.54 0.55 0.54 0.54 0.53 0.53 0.50 0.52 0.53 0.49 0.47 0.49 0.52 0.53 0.53 0.53 0.53 0.52 0.50 0.49 0.48 0.47 0.46 0.45 0.45 0.44 0.45 0.44 0.42 0.41
0.98 0.97 0.98 0.98 0.98 0.98 0.99 0.98 0.96 0.94 0.91 0.91 0.90 0.88 0.86 0.83 0.83 0.84 0.83 0.80 0.78 0.77 0.77 0.80 0.75 0.73 0.75 0.73 0.71 0.67 0.63 0.62 0.64 0.64 0.62 0.61 0.63 0.63 0.64 0.64 0.61 0.59 0.58 0.58 0.56 0.53 0.51 0.53 0.53 0.53 0.53 0.51 0.52 0.53 0.53 0.52 0.53 0.53 0.53 0.53 0.51 0.50 0.51 0.48 0.48 0.51 0.52 0.50 0.51 0.53 0.53 0.50 0.49 0.48 0.46 0.44 0.44 0.44 0.44 0.44 0.43 0.42 0.41 0.39 0.39
0.97 0.96 0.97 0.96 0.97 0.97 0.94 0.91 0.89 0.85 0.87 0.82 0.82 0.81 0.77 0.76 0.75 0.74 0.72 0.72 0.72 0.72 0.70 0.69 0.66 0.68 0.71 0.69 0.66 0.64 0.59 0.59 0.62 0.63 0.62 0.60 0.61 0.63 0.63 0.60 0.58 0.58 0.58 0.58 0.57 0.53 0.53 0.52 0.53 0.51 0.51 0.50 0.50 0.50 0.50 0.51 0.51 0.51 0.51 0.51 0.50 0.52 0.51 0.51 0.53 0.53 0.51 0.51 0.52 0.52 0.51 0.50 0.49 0.47 0.46 0.43 0.42 0.42 0.43 0.42 0.40 0.38 0.38 0.39 0.39
0.90 0.89 0.89 0.90 0.92 0.91 0.86 0.83 0.80 0.74 0.75 0.73 0.74 0.73 0.71 0.71 0.69 0.68 0.68 0.68 0.66 0.66 0.66 0.66 0.63 0.63 0.64 0.65 0.61 0.60 0.54 0.58 0.58 0.60 0.63 0.62 0.60 0.60 0.57 0.55 0.54 0.55 0.55 0.55 0.54 0.53 0.51 0.51 0.52 0.52 0.51 0.50 0.50 0.50 0.49 0.49 0.48 0.49 0.49 0.48 0.49 0.50 0.49 0.49 0.49 0.50 0.50 0.50 0.50 0.50 0.50 0.49 0.48 0.47 0.45 0.43 0.42 0.43 0.42 0.40 0.39 0.39 0.39 0.38 0.39
0.84 0.83 0.82 0.85 0.86 0.85 0.81 0.78 0.76 0.72 0.72 0.70 0.70 0.69 0.68 0.66 0.65 0.63 0.63 0.62 0.60 0.59 0.60 0.60 0.59 0.59 0.60 0.59 0.52 0.47 0.48 0.53 0.58 0.60 0.59 0.57 0.56 0.56 0.55 0.53 0.53 0.53 0.52 0.52 0.53 0.52 0.51 0.51 0.51 0.51 0.51 0.51 0.50 0.50 0.50 0.49 0.49 0.48 0.48 0.48 0.47 0.47 0.48 0.48 0.48 0.47 0.47 0.48 0.48 0.48 0.48 0.47 0.46 0.46 0.45 0.43 0.42 0.42 0.40 0.40 0.41 0.41 0.41 0.40 0.40
0.83 0.80 0.79 0.79 0.79 0.76 0.75 0.74 0.72 0.71 0.71 0.69 0.69 0.66 0.66 0.65 0.64 0.62 0.61 0.60 0.59 0.57 0.56 0.56 0.56 0.56 0.55 0.52 0.49 0.44 0.44 0.45 0.50 0.54 0.53 0.52 0.52 0.52 0.52 0.52 0.52 0.51 0.51 0.51 0.51 0.51 0.51 0.50 0.50 0.50 0.50 0.50 0.51 0.51 0.51 0.50 0.50 0.49 0.48 0.48 0.48 0.48 0.48 0.48 0.48 0.48 0.48 0.48 0.48 0.47 0.47 0.47 0.46 0.44 0.41 0.42 0.43 0.43 0.43 0.43 0.42 0.42 0.41 0.41 0.40
0.83 0.78 0.73 0.73 0.74 0.70 0.69 0.68 0.68 0.68 0.67 0.66 0.65 0.63 0.64 0.62 0.61 0.59 0.59 0.59 0.58 0.57 0.55 0.53 0.53 0.53 0.50 0.46 0.42 0.38 0.35 0.40 0.47 0.48 0.50 0.50 0.49 0.50 0.49 0.49 0.50 0.51 0.50 0.49 0.50 0.50 0.50 0.50 0.49 0.49 0.48 0.49 0.49 0.49 0.48 0.48 0.48 0.47 0.47 0.47 0.47 0.47 0.46 0.46 0.47 0.48 0.48 0.47 0.47 0.47 0.46 0.45 0.44 0.43 0.43 0.43 0.43 0.44 0.44 0.43 0.42 0.42 0.41 0.41 0.41
0.82 0.79 0.74 0.71 0.70 0.68 0.67 0.63 0.66 0.64 0.64 0.63 0.62 0.63 0.63 0.59 0.57 0.56 0.55 0.54 0.54 0.52 0.53 0.52 0.53 0.53 0.50 0.46 0.42 0.35 0.35 0.41 0.44 0.45 0.46 0.48 0.49 0.49 0.49 0.50 0.51 0.52 0.52 0.52 0.52 0.52 0.50 0.49 0.48 0.48 0.48 0.48 0.48 0.48 0.48 0.47 0.48 0.47 0.47 0.47 0.46 0.47 0.47 0.47 0.48 0.48 0.47 0.46 0.45 0.45 0.44 0.43 0.42 0.42 0.41 0.42 0.43 0.44 0.43 0.43 0.43 0.42 0.41 0.42 0.41
0.76 0.75 0.72 0.67 0.63 0.66 0.68 0.67 0.64 0.63 0.62 0.61 0.60 0.60 0.58 0.56 0.55 0.54 0.52 0.50 0.51 0.50 0.51 0.51 0.53 0.53 0.52 0.48 0.44 0.44 0.47 0.49 0.49 0.49 0.49 0.48 0.48 0.47 0.49 0.50 0.51 0.51 0.52 0.52 0.53 0.53 0.51 0.48 0.47 0.47 0.48 0.48 0.48 0.49 0.49 0.50 0.50 0.49 0.48 0.47 0.47 0.47 0.47 0.47 0.46 0.46 0.46 0.45 0.45 0.44 0.44 0.43 0.42 0.42 0.41 0.42 0.42 0.42 0.43 0.43 0.43 0.42 0.42 0.40 0.41
0.70 0.70 0.68 0.65 0.68 0.68 0.66 0.67 0.66 0.64 0.62 0.58 0.56 0.56 0.55 0.53 0.53 0.51 0.53 0.52 0.49 0.49 0.50 0.51 0.51 0.49 0.47 0.49 0.50 0.49 0.49 0.48 0.47 0.46 0.47 0.48 0.49 0.49 0.50 0.51 0.52 0.52 0.52 0.51 0.52 0.52 0.50 0.48 0.47 0.46 0.46 0.46 0.48 0.49 0.49 0.50 0.51 0.50 0.50 0.49 0.48 0.47 0.46 0.47 0.47 0.48 0.48 0.47 0.46 0.45 0.44 0.43 0.43 0.42 0.42 0.42 0.42 0.43 0.43 0.43 0.43 0.42 0.41 0.41 0.40
0.67 0.67 0.66 0.67 0.67 0.65 0.64 0.62 0.63 0.61 0.59 0.58 0.57 0.56 0.52 0.53 0.56 0.55 0.52 0.53 0.51 0.48 0.48 0.48 0.47 0.46 0.44 0.44 0.46 0.47 0.47 0.48 0.49 0.48 0.47 0.47 0.47 0.49 0.50 0.51 0.52 0.52 0.51 0.51 0.51 0.50 0.49 0.48 0.46 0.45 0.45 0.45 0.46 0.47 0.48 0.49 0.49 0.50 0.51 0.51 0.51 0.49 0.49 0.49 0.50 0.49 0.48 0.48 0.47 0.46 0.45 0.44 0.43 0.43 0.44 0.44 0.44 0.45 0.44 0.45 0.44 0.43 0.42 0.42 0.41
0.70 0.67 0.64 0.65 0.64 0.64 0.65 0.64 0.60 0.59 0.57 0.58 0.59 0.58 0.55 0.55 0.55 0.54 0.52 0.52 0.49 0.49 0.49 0.49 0.47 0.46 0.47 0.47 0.47 0.47 0.46 0.45 0.46 0.46 0.46 0.47 0.48 0.49 0.50 0.51 0.51 0.50 0.50 0.50 0.50 0.48 0.47 0.46 0.46 0.45 0.45 0.46 0.46 0.47 0.47 0.48 0.50 0.51 0.52 0.53 0.51 0.51 0.50 0.51 0.51 0.51 0.50 0.50 0.49 0.47 0.46 0.45 0.45 0.45 0.45 0.46 0.46 0.46 0.46 0.46 0.46 0.45 0.44 0.44 0.44
0.68 0.67 0.66 0.66 0.64 0.61 0.62 0.61 0.60 0.58 0.61 0.60 0.60 0.58 0.57 0.55 0.54 0.51 0.50 0.46 0.42 0.45 0.47 0.48 0.47 0.49 0.48 0.48 0.46 0.45 0.45 0.45 0.45 0.45 0.45 0.45 0.46 0.48 0.49 0.49 0.48 0.47 0.48 0.48 0.48 0.48 0.47 0.46 0.47 0.47 0.47 0.47 0.47 0.47 0.48 0.49 0.50 0.51 0.52 0.54 0.52 0.51 0.51 0.51 0.52 0.52 0.51 0.50 0.49 0.49 0.48 0.46 0.46 0.47 0.47 0.47 0.47 0.47 0.47 0.47 0.48 0.48 0.48 0.48 0.49
0.68 0.67 0.66 0.64 0.63 0.62 0.60 0.57 0.59 0.51 0.58 0.55 0.54 0.53 0.54 0.52 0.49 0.50 0.52 0.50 0.50 0.48 0.48 0.49 0.49 0.49 0.48 0.47 0.45 0.44 0.44 0.44 0.44 0.45 0.45 0.45 0.46 0.47 0.47 0.47 0.48 0.47 0.47 0.46 0.46 0.46 0.46 0.47 0.47 0.47 0.48 0.48 0.48 0.48 0.49 0.49 0.50 0.50 0.51 0.52 0.51 0.51 0.51 0.51 0.51 0.50 0.50 0.49 0.48 0.48 0.48 0.48 0.47 0.48 0.49 0.49 0.49 0.49 0.49 0.49 0.50 0.50 0.50 0.50 0.51
0.69 0.69 0.67 0.62 0.60 0.60 0.58 0.58 0.52 0.55 0.56 0.54 0.51 0.50 0.51 0.49 0.51 0.50 0.49 0.48 0.49 0.48 0.49 0.49 0.47 0.46 0.46 0.45 0.44 0.45 0.44 0.44 0.44 0.44 0.44 0.45 0.45 0.46 0.46 0.46 0.46 0.46 0.46 0.46 0.46 0.46 0.47 0.47 0.47 0.47 0.48 0.48 0.48 0.48 0.48 0.48 0.48 0.50 0.52 0.50 0.50 0.50 0.50 0.49 0.49 0.48 0.48 0.49 0.49 0.49 0.49 0.48 0.49 0.49 0.50 0.50 0.51 0.51 0.51 0.52 0.52 0.52 0.52 0.51 0.51
0.71 0.69 0.65 0.62 0.61 0.60 0.58 0.56 0.55 0.56 0.54 0.52 0.52 0.52 0.50 0.50 0.50 0.49 0.49 0.47 0.48 0.48 0.47 0.47 0.47 0.45 0.44 0.45 0.44 0.44 0.44 0.44 0.44 0.44 0.45 0.45 0.45 0.45 0.45 0.45 0.45 0.46 0.46 0.46 0.46 0.46 0.47 0.47 0.47 0.47 0.47 0.47 0.47 0.48 0.48 0.48 0.50 0.52 0.50 0.50 0.50 0.50 0.50 0.50 0.50 0.50 0.50 0.51 0.51 0.51 0.50 0.50 0.50 0.50 0.51 0.53 0.53 0.53 0.54 0.54 0.54 0.54 0.54 0.54 0.54
Wind_Speed
16 16 16 15 15 15 15 14 14 13 13 13 12 11 11 11 10 10 10 10 10 10 10 9 9 9 9 9 9 9 9 9 9 9 8 8 8 8 8 8 8 8 8 8 8 8 8 8 8 8 8 8 8 8 8 8 8 9 9 9 10 10 10 10 11 12 13 13 13 13 14 14 14 14 14 14 15 15 15 15 15 15 15 15 14
17 16 16 16 16 16 15 15 15 14 14 14 13 12 12 12 11 11 11 11 11 11 10 10 10 10 10 9 9 9 9 9 9 9 9 9 9 9 8 8 8 8 9 9 9 9 9 9 9 9 9 9 9 9 9 9 9 9 9 9 10 10 10 10 11 12 12 13 13 13 13 13 14 14 14 14 14 15 15 15 15 15 14 14 14
17 17 16 16 16 16 16 16 16 16 15 15 14 14 13 13 13 12 12 11 11 11 11 11 11 11 10 10 10 10 10 10 9 9 9 9 9 9 9 8 8 9 9 9 9 9 9 9 9 9 9 9 9 9 9 9 9 10 10 10 10 11 11 11 11 12 13 13 13 13 13 13 14 14 14 14 14 14 15 15 15 15 14 14 14
17 17 17 17 17 16 16 16 16 16 16 16 15 15 14 14 13 13 13 12 12 12 12 12 12 12 11 11 11 11 11 10 10 10 10 10 10 9 9 9 9 9 9 9 9 9 9 9 9 9 9 10 10 10 10 10 10 10 10 11 11 11 11 11 12 12 13 13 13 14 14 14 14 14 14 14 14 14 14 14 15 15 14 14 14
17 18 18 18 18 17 17 17 17 17 17 17 16 16 15 15 14 14 14 14 13 13 13 12 12 12 12 12 12 12 12 11 11 11 10 10 10 10 10 10 10 10 10 9 9 9 10 10 9 9 10 10 10 10 10 10 10 10 11 11 11 11 11 12 12 12 13 14 14 14 14 14 14 13 13 14 14 14 14 14 14 14 14 14 14
18 18 18 18 19 19 18 18 18 18 18 17 17 17 16 16 15 15 15 15 14 14 14 13 13 13 13 13 12 12 12 12 12 12 11 11 11 11 11 10 10 10 10 10 10 10 10 10 10 10 10 10 10 10 10 10 11 11 11 11 11 12 12 12 13 13 13 14 14 14 14 13 13 13 13 13 14 14 14 14 14 14 14 14 14
19 19 19 19 19 19 19 19 19 18 18 18 18 18 18 17 17 16 16 15 15 15 15 15 15 14 14 14 13 13 13 13 13 13 12 12 12 12 12 12 11 11 11 11 11 11 11 11 11 11 11 11 11 11 11 11 11 11 11 12 12 12 12 13 13 13 13 14 14 14 14 13 13 13 13 13 13 13 14 14 14 14 14 14 15
20 20 20 20 20 20 20 20 20 19 19 19 19 18 18 18 18 18 17 17 16 16 16 16 16 15 15 15 15 15 14 14 14 14 14 14 13 13 13 13 13 12 12 12 12 12 12 12 12 12 12 12 11 11 11 11 11 12 12 12 12 12 13 13 13 14 14 14 14 14 14 14 14 14 14 13 13 14 14 15 14 14 15 15 15
21 21 21 21 20 21 21 21 21 20 20 20 20 20 19 19 19 19 18 18 18 18 17 17 17 16 16 16 16 16 15 15 15 15 15 15 14 14 14 14 14 14 13 13 13 13 13 12 13 13 13 13 12 12 12 12 13 13 13 13 13 14 14 14 14 14 15 15 15 15 15 15 15 15 14 14 15 15 15 15 15 15 16 16 16
22 22 22 22 21 21 21 21 21 21 21 21 21 21 20 20 19 19 19 19 19 18 18 18 18 18 17 17 17 17 16 16 16 16 15 15 15 15 14 14 14 14 14 14 14 13 13 13 13 13 13 13 14 14 14 14 14 15 15 14 15 15 15 15 15 15 15 16 16 16 16 16 16 15 16 16 16 17 16 16 16 16 17 17 17
24 24 24 23 23 23 22 22 22 22 22 22 22 22 21 21 21 20 20 20 20 20 19 19 19 19 19 18 18 18 18 17 17 16 16 16 16 16 15 15 15 15 15 15 15 15 14 14 14 14 14 14 15 15 15 15 15 15 15 16 16 16 16 16 16 16 16 16 17 17 17 17 17 17 17 17 17 17 17 17 17 18 18 18 18
25 25 25 24 24 24 24 23 23 23 23 23 23 22 22 22 22 21 21 21 21 21 21 21 21 21 20 20 20 19 19 18 18 18 18 18 17 17 17 17 17 16 16 16 16 16 16 15 15 15 15 15 15 15 15 15 15 15 16 16 16 17 17 17 17 17 17 18 18 18 18 18 18 17 17 17 18 18 18 18 18 19 19 19 19
25 26 26 26 25 25 25 25 25 24 23 23 23 22 22 22 22 22 22 22 22 22 22 22 22 22 22 22 21 20 19 19 19 19 19 19 19 19 19 19 19 18 18 17 17 17 17 17 17 16 16 16 16 16 16 16 16 16 16 16 17 17 17 18 18 18 18 18 18 18 18 18 18 18 18 18 19 19 19 19 19 20 20 21 21
26 26 27 27 27 27 27 27 27 26 25 25 23 23 22 22 22 23 23 23 23 23 23 23 23 23 23 22 22 21 20 20 20 20 21 21 21 21 21 21 20 20 20 19 19 19 19 18 18 18 17 17 17 17 17 17 17 17 17 17 17 18 18 18 19 19 19 19 19 19 19 19 19 19 18 19 19 19 20 21 21 22 22 23 23
26 26 26 27 27 27 28 28 27 26 26 25 24 24 23 23 23 23 23 24 24 24 24 24 24 23 23 23 22 21 21 21 21 22 22 21 21 21 21 21 21 21 21 20 20 20 19 19 19 19 18 18 18 18 18 18 18 18 19 19 19 19 20 20 20 20 20 20 20 20 19 19 19 19 19 20 20 21 22 23 24 24 24 24 24
25 25 25 26 26 27 27 28 28 27 27 27 26 26 25 25 25 25 25 25 25 26 26 25 24 24 23 23 22 21 22 22 22 22 22 22 22 22 22 22 22 22 21 20 19 18 19 19 19 19 18 19 19 19 19 20 20 20 20 20 21 21 20 20 20 20 21 21 21 21 21 21 21 22 22 23 23 23 24 24 24 25 24 24 24
25 25 25 25 25 25 26 26 27 27 27 27 27 27 27 27 27 27 27 27 27 28 28 26 25 23 22 23 22 22 22 22 22 22 22 22 22 22 22 22 22 22 21 21 20 19 19 19 19 19 19 19 20 20 20 21 21 21 21 21 21 21 21 21 21 21 22 22 22 22 23 23 24 24 25 25 25 25 24 25 25 25 25 24 24
25 25 24 24 24 24 24 24 24 24 25 26 27 27 27 27 27 27 27 27 28 29 29 27 25 23 22 22 22 22 22 23 22 22 22 23 23 23 22 22 22 22 21 21 21 20 20 19 20 20 20 20 21 21 21 21 21 21 22 22 22 22 22 21 22 22 22 22 23 23 24 24 25 25 26 26 26 25 25 26 26 26 25 25 25
24 24 24 24 24 24 23 23 22 22 23 24 25 25 25 25 26 26 26 27 27 27 28 27 25 24 24 23 22 22 22 22 22 22 22 23 23 23 23 22 22 22 21 21 21 21 21 21 21 21 22 22 22 22 22 22 22 22 22 23 23 23 22 22 23 23 23 23 24 24 24 25 25 25 25 25 25 24 24 25 25 25 25 25 25
22 22 22 23 23 23 23 22 22 21 21 20 21 22 22 23 23 24 24 24 25 25 25 25 24 24 25 24 23 23 23 22 22 22 22 22 22 23 22 22 22 22 21 21 21 22 22 22 21 22 22 22 22 22 23 23 23 23 23 23 24 23 23 24 24 24 24 24 24 24 24 25 24 24 24 24 24 24 24 24 24 24 24 24 24
20 20 21 21 21 21 21 20 19 19 18 18 17 17 18 18 19 20 20 21 21 21 20 21 22 23 24 24 24 23 23 23 23 22 21 21 21 21 22 22 22 22 21 20 20 21 21 21 22 22 22 22 22 23 23 23 24 23 23 24 24 24 24 24 24 24 24 24 24 24 24 24 23 23 24 24 24 24 24 25 25 24 24 24 24
19 19 19 19 19 19 19 18 18 17 17 16 16 15 15 15 16 16 16 16 17 16 16 17 18 19 20 22 23 22 22 22 22 22 21 20 20 20 20 21 21 22 21 20 20 21 21 22 22 22 22 22 22 22 23 23 23 23 23 24 24 24 24 24 24 24 24 24 24 24 23 23 23 24 24 24 24 24 25 25 25 25 24 24 24
19 18 18 17 17 17 16 16 17 17 16 16 15 15 15 15 15 14 14 14 14 15 14 14 14 14 15 17 18 20 20 20 20 20 20 19 19 18 19 19 20 20 20 20 19 20 20 21 21 21 21 21 22 22 22 23 23 24 24 25 25 25 24 24 23 23 23 24 24 24 24 24 24 24 24 25 25 25 25 26 26 26 25 25 25
19 19 18 18 17 17 16 15 16 16 16 16 15 15 15 15 14 14 14 14 14 14 14 14 13 12 12 12 13 14 15 16 16 17 17 17 16 16 17 17 17 17 17 18 18 18 18 18 18 19 20 20 21 21 22 22 22 23 24 24 24 23 23 22 22 22 23 23 23 23 23 24 24 24 24 24 25 25 25 26 26 26 26 26 25
19 19 19 19 18 18 17 17 16 16 16 16 16 16 15 15 15 14 14 14 14 14 14 14 13 12 11 11 11 11 11 11 12 13 14 14 14 14 14 14 14 15 15 16 16 17 17 18 18 18 19 19 20 20 21 21 21 21 22 22 21 21 21 22 22 22 22 22 22 22 23 23 23 24 24 24 25 25 24 25 25 25 26 26 25
19 19 19 19 19 18 18 17 17 17 17 17 17 17 16 15 15 15 15 15 15 15 15 15 15 15 14 13 13 12 12 12 12 13 13 13 13 13 13 12 13 13 14 15 16 17 17 18 18 19 19 19 20 20 20 20 21 21 21 21 20 20 21 22 22 22 22 22 23 23 23 24 25 25 25 25 25 25 25 25 26 26 26 26 26
20 20 19 19 19 19 18 18 17 17 17 17 17 17 17 16 16 15 15 15 15 15 16 16 16 15 15 14 13 13 12 12 12 12 12 13 13 13 13 13 13 14 15 16 17 18 18 19 19 20 20 21 21 21 20 21 21 21 21 21 21 21 22 23 23 23 23 23 24 24 25 25 26 26 26 26 26 26 27 27 27 27 27 27 27
21 21 21 20 20 20 20 19 19 18 17 17 17 17 17 17 16 16 16 16 15 15 15 15 15 15 14 14 14 13 13 13 12 12 12 13 14 14 14 14 14 15 16 17 17 18 19 19 20 20 20 21 21 21 21 21 21 21 21 21 21 22 22 23 23 23 24 24 25 26 26 26 27 27 27 27 27 28 28 28 28 28 28 28 28
22 22 21 21 21 21 21 20 20 19 18 18 17 17 17 17 17 16 16 16 16 15 15 14 14 14 14 14 14 14 14 14 14 14 14 15 15 15 16 16 17 17 17 18 18 19 19 20 19 20 20 20 20 21 21 21 21 21 21 22 22 22 23 23 23 24 24 25 26 26 27 27 27 27 27 28 28 28 29 29 29 29 29 29 29
23 23 22 22 21 21 21 21 20 20 19 19 18 18 17 16 16 16 17 17 17 16 16 16 16 16 16 16 16 15 16 16 16 16 17 17 18 18 19 19 19 20 20 20 20 20 20 20 20 20 21 21 21 21 21 21 21 21 21 21 22 22 22 23 23 24 25 26 26 27 27 27 27 27 28 28 28 29 29 29 29 29 29 29 29
24 23 23 23 23 23 22 21 21 20 20 20 20 19 18 18 17 17 17 18 17 17 17 17 17 18 18 18 18 18 18 18 18 18 19 20 20 20 20 21 21 21 21 22 21 21 21 21 21 21 21 21 22 22 22 22 22 22 23 22 22 23 23 24 24 25 26 26 27 27 28 28 28 28 29 29 29 29 29 29 30 30 30 30 30
24 24 24 24 24 23 23 23 22 22 21 21 21 21 21 20 19 19 18 18 18 18 18 18 19 19 19 19 19 20 20 20 20 20 21 21 21 22 22 22 22 22 22 22 22 22 22 22 22 22 22 22 23 23 23 23 24 24 24 24 25 25 26 26 27 27 27 27 28 28 29 29 30 30 30 31 31 30 30 30 30 31 31 31 31
25 24 24 24 24 24 24 24 24 23 23 23 23 23 23 23 22 21 21 20 20 20 20 20 20 20 20 20 21 21 22 22 22 23 23 24 24 24 24 24 24 24 24 23 23 23 23 23 23 23 24 24 24 25 25 25 26 26 26 26 27 27 28 29 29 29 29 30 30 30 30 31 31 32 32 32 32 32 32 32 32 32 32 33 33
24 24 24 25 25 25 24 24 24 24 24 24 24 24 24 24 23 23 23 22 22 22 22 22 22 22 22 22 23 23 24 24 24 25 25 25 25 25 25 25 26 25 25 24 24 24 24 24 25 25 25 25 26 26 26 27 27 27 27 28 28 29 30 30 30 30 31 31 32 32 32 33 33 33 33 34 34 34 34 34 34 34 35 35 36
24 24 25 25 25 25 25 25 25 25 25 25 25 25 24 24 24 25 25 24 24 23 23 24 24 24 24 24 25 25 25 25 26 26 26 26 26 26 25 25 25 25 25 25 26 26 26 26 26 27 27 27 27 27 28 28 28 29 29 29 30 30 31 31 31 32 33 33 33 33 34 34 34 34 35 35 35 36 36 36 36 36 37 38 38
26 26 26 26 26 26 26 26 26 26 25 25 25 25 25 25 25 26 26 26 26 25 25 25 24 24 24 25 25 25 26 26 26 26 26 26 26 26 26 25 25 25 25 26 26 27 27 27 27 28 28 28 28 28 29 29 29 30 30 30 31 32 32 32 33 34 34 34 34 34 35 35 35 36 36 36 37 37 37 38 38 38 39 40 40
27 27 27 28 27 27 26 26 26 26 26 26 26 26 26 26 26 26 26 26 26 26 26 26 26 25 25 25 25 26 26 25 25 25 26 26 26 26 26 26 26 26 26 26 27 27 28 28 28 28 29 29 29 30 30 30 31 31 31 32 32 33 33 34 34 34 34 35 35 35 36 36 37 37 37 38 38 39 39 39 40 40 41 42 42
26 26 27 28 28 27 27 27 27 27 27 27 26 26 26 26 26 26 26 26 26 26 26 26 26 26 26 25 25 25 25 25 26 26 26 26 26 26 26 26 26 26 26 26 27 27 28 28 28 28 29 30 30 31 31 32 32 32 33 33 33 33 34 34 35 35 35 36 36 36 37 37 38 39 39 39 40 40 41 41 42 42 43 43 43
25 26 26 27 27 27 27 27 27 27 28 28 27 27 27 26 26 26 26 26 26 26 26 26 26 26 26 26 26 26 26 26 26 27 26 27 27 27 27 27 27 27 27 27 27 28 28 28 28 29 29 30 31 31 31 32 33 33 34 34 34 35 35 35 35 36 36 37 37 38 38 38 39 40 40 41 42 42 43 43 44 44 44 44 44
25 25 26 26 26 26 26 27 26 27 27 27 27 27 27 27 27 27 26 26 26 26 26 26 26 26 26 26 26 26 26 26 26 26 26 26 26 27 27 27 27 27 27 28 28 28 28 29 29 29 30 30 31 31 32 32 33 34 34 35 35 36 36 36 37 37 38 38 39 39 39 39 40 41 41 42 43 44 44 44 45 45 45 45 46
24 24 25 26 26 25 26 26 26 26 26 27 27 27 27 27 27 26 26 26 26 26 26 26 26 26 27 27 26 27 27 26 26 26 26 26 26 26 27 27 27 27 28 28 28 28 29 29 29 30 30 31 31 32 32 33 34 34 35 35 36 37 37 37 38 38 39 40 40 40 41 41 41 42 43 43 44 45 45 45 46 46 47 47 48
23 23 23 25 25 25 25 26 26 26 26 26 26 26 26 26 26 26 25 25 25 25 25 25 26 26 26 26 26 27 27 27 26 26 26 26 26 27 27 27 27 27 28 28 28 29 29 30 30 31 31 32 32 33 33 34 34 35 36 36 37 37 38 39 39 40 40 40 41 41 42 42 43 43 44 45 45 46 46 47 47 48 48 49 49
24 23 23 24 25 25 25 25 25 25 25 25 25 25 25 25 25 25 25 25 25 24 25 25 25 25 26 25 25 25 25 25 25 25 25 26 26 26 26 27 27 28 28 29 29 30 30 31 31 32 32 33 33 34 35 35 36 36 37 37 38 39 39 40 40 40 40 41 42 43 43 44 44 45 46 47 47 48 48 49 49 50 50 51 51
25 24 24 24 25 25 25 25 25 25 25 25 24 24 24 25 24 24 24 25 25 24 24 24 24 24 25 25 24 24 24 25 25 25 25 26 26 26 26 27 27 28 29 29 30 30 31 31 32 33 33 34 34 35 35 36 37 37 38 39 39 40 40 40 41 41 42 43 44 45 45 46 47 47 48 48 49 49 50 50 51 51 51 52 52
25 25 25 25 25 25 25 25 25 25 24 24 24 24 24 24 24 24 24 24 24 24 24 24 24 24 24 24 24 25 25 25 25 26 26 27 27 27 28 28 29 29 30 30 31 31 32 33 33 34 34 35 36 36 37 37 38 39 39 40 40 40 41 42 43 44 45 46 47 47 48 48 49 49 50 50 50 51 51 51 51 52 52 53 53
26 26 26 26 26 26 26 25 25 25 24 24 24 24 24 24 24 24 23 23 23 24 24 24 24 25 25 25 25 25 25 26 26 27 27 27 28 28 29 29 30 30 31 31 32 32 33 34 34 35 35 36 36 37 38 38 39 40 40 40 41 41 42 44 45 46 47 48 48 49 50 50 50 51 51 51 51 51 51 52 52 53 53 53 53
28 28 27 27 27 26 26 26 25 25 25 25 24 24 24 24 24 24 24 24 24 24 24 24 24 25 25 25 25 25 26 26 27 27 28 28 28 29 29 30 30 31 31 32 32 33 34 34 35 35 36 37 37 38 39 39 40 41 41 41 42 43 44 46 47 47 48 49 50 50 51 51 50 50 50 51 51 51 52 52 52 53 54 54 54
30 30 29 29 28 28 27 27 27 27 26 26 25 25 24 24 24 24 24 24 24 25 25 25 25 25 25 25 26 26 26 27 27 28 28 28 29 29 30 30 31 31 32 33 33 34 34 35 36 36 37 38 38 39 40 40 41 42 42 43 44 45 46 47 47 48 49 49 50 50 50 50 50 50 51 51 51 52 52 52 53 53 54 54 55
29 30 30 29 29 29 28 28 28 28 27 27 26 26 25 25 25 25 25 25 25 25 25 25 25 25 26 26 26 27 27 27 28 28 28 29 29 30 30 31 31 32 33 33 34 35 35 36 37 37 38 38 39 40 40 41 42 42 42 43 44 45 46 47 47 48 49 49 49 50 50 51 51 51 51 51 51 52 52 52 53 53 53 54 54
28 28 29 29 29 28 28 28 28 27 27 27 27 26 26 26 26 26 25 25 25 26 26 26 26 26 26 26 27 27 27 28 28 28 29 30 30 30 31 31 32 33 33 34 34 35 36 36 37 38 38 39 39 40 40 41 41 42 42 44 45 45 46 47 47 48 48 49 50 50 51 51 51 51 51 51 51 51 51 52 52 53 53 53 54
28 28 28 28 28 27 27 27 26 26 26 26 26 26 26 26 26 26 26 26 26 26 26 26 27 27 27 27 27 27 28 28 29 29 29 30 30 31 31 32 32 33 33 34 35 35 36 36 37 37 38 38 39 40 40 41 41 41 43 44 45 45 46 47 47 48 48 49 50 50 50 50 50 50 50 50 50 50 51 51 52 52 52 52 52
Wind_Direction
204 205 206 207 209 209 210 210 209 209 207 208 209 209 210 210 209 208 206 207 208 209 210 209 209 210 210 211 212 214 216 217 219 223 225 228 231 232 234 236 240 243 245 248 249 250 252 254 255 257 258 260 261 263 266 268 268 269 271 273 274 276 278 281 284 287 289 292 294 297 299 302 304 305 307 309 309 310 311 312 312 314 314 316 318
207 208 208 209 211 211 212 212 213 213 212 212 213 212 213 213 213 213 211 212 212 211 212 213 213 213 214 216 216 216 220 222 223 225 228 230 232 233 235 238 241 243 245 249 251 252 254 255 258 258 259 260 261 263 266 269 271 273 274 276 277 279 281 283 285 287 290 293 295 297 300 302 302 304 306 308 309 310 311 312 313 315 317 318 320
209 211 211 211 212 213 213 214 215 216 215 216 216 216 217 217 217 217 217 217 216 216 216 215 216 217 217 219 220 220 223 226 227 229 231 232 234 235 237 239 242 244 246 248 251 253 255 257 259 260 260 260 261 264 266 269 273 275 276 278 279 281 282 284 285 287 291 294 297 298 300 302 303 304 306 307 308 310 311 312 315 318 319 319 320
211 213 214 214 215 215 215 216 217 217 218 219 220 220 220 220 220 221 222 222 220 220 221 219 219 222 221 221 223 225 227 229 229 230 232 235 236 238 238 239 242 245 247 248 250 252 255 257 259 261 263 263 262 265 267 269 272 274 276 278 278 280 282 283 285 287 290 293 296 298 300 302 303 304 306 307 309 310 312 314 316 318 320 320 321
214 215 217 217 218 218 218 218 218 219 220 221 222 222 223 223 223 224 225 226 225 223 224 224 224 226 226 225 227 229 230 231 232 232 234 236 238 239 241 242 244 246 248 249 250 252 255 258 259 261 263 264 264 266 268 270 273 275 277 278 279 281 283 284 286 288 289 292 295 298 300 302 303 304 306 308 310 311 312 314 315 317 319 319 319
217 219 220 220 221 222 222 222 222 221 223 224 223 224 224 225 226 226 227 228 229 227 227 228 229 230 230 230 230 232 233 233 234 235 236 238 239 241 242 243 245 247 249 251 252 254 255 257 259 260 262 263 265 267 269 271 273 276 278 278 280 282 283 285 287 288 289 291 294 297 299 301 302 304 306 307 309 310 311 313 314 315 317 317 317
220 223 224 224 224 224 224 225 225 225 225 226 227 226 226 226 227 228 229 230 231 232 231 230 231 233 233 234 234 234 235 236 237 238 239 240 242 243 244 245 246 248 251 252 253 255 256 258 259 259 260 262 263 265 268 271 273 275 277 279 280 282 283 286 287 288 290 292 294 296 298 300 301 302 304 306 306 308 310 311 312 312 313 314 314
222 225 226 226 227 227 227 227 228 228 227 228 229 229 229 229 229 229 230 231 233 234 234 233 234 234 235 237 238 238 238 239 240 241 242 242 244 246 247 249 250 250 252 254 256 259 260 261 261 261 262 262 263 265 267 269 272 273 276 278 279 281 283 286 288 289 291 292 293 295 297 298 299 300 302 303 304 306 307 308 310 311 311 311 311
226 229 229 229 228 229 229 229 229 230 230 229 229 231 232 232 232 232 232 233 235 235 236 236 237 238 237 237 239 241 241 241 242 242 243 243 245 247 248 251 253 253 254 256 258 260 262 263 264 264 263 262 263 266 268 270 271 272 275 277 278 281 282 284 285 287 289 290 291 293 294 295 296 298 300 301 302 303 305 307 309 310 310 309 309
230 231 232 231 231 231 230 230 230 230 230 230 230 232 233 233 233 234 234 235 236 237 237 238 240 241 240 239 240 242 243 244 244 244 244 244 246 247 248 251 254 254 255 257 260 261 263 264 265 265 264 263 265 268 270 271 272 273 275 277 279 281 282 283 285 286 288 289 290 291 292 292 294 296 297 299 301 302 305 308 309 310 310 310 310
233 232 232 232 232 232 231 231 231 231 231 231 231 232 233 233 235 236 236 236 237 238 239 239 240 241 241 241 242 243 244 246 247 247 246 247 248 248 249 251 254 256 257 258 260 262 263 265 265 266 265 266 268 269 269 270 272 273 275 277 278 280 281 283 285 286 287 288 289 290 291 292 293 294 295 297 299 302 304 306 307 308 309 310 310
236 234 233 233 233 233 233 232 232 232 233 233 232 232 232 233 235 235 236 236 237 239 240 240 240 241 242 242 244 244 244 247 248 248 248 250 250 250 250 253 256 258 259 259 261 262 263 264 266 267 266 266 269 270 269 269 271 273 275 276 277 279 280 282 283 285 287 287 288 289 290 291 292 293 294 296 298 300 301 302 304 305 306 307 307
234 234 234 235 234 234 234 234 233 234 234 234 233 233 233 234 236 237 237 238 239 240 241 241 241 241 242 243 243 243 244 246 248 248 248 250 252 252 252 254 256 258 259 261 261 262 263 265 266 267 267 267 269 271 270 271 272 273 275 276 277 277 278 280 282 283 285 286 287 288 289 290 291 292 294 295 297 298 299 300 302 303 303 304 304
233 234 235 236 237 237 237 236 235 236 237 236 235 235 236 237 238 239 240 240 241 242 242 242 242 242 242 242 243 243 244 246 247 248 250 252 253 253 253 254 256 258 260 261 262 262 264 265 266 267 268 269 269 270 271 272 273 275 276 277 278 278 278 279 281 282 283 284 285 286 288 290 291 293 294 295 296 296 297 299 300 301 301 301 302
234 235 237 238 238 239 240 240 239 238 239 240 240 239 239 239 239 241 242 242 243 243 243 243 242 243 242 241 242 244 245 247 249 250 251 253 253 253 253 254 255 257 259 261 262 263 264 265 265 267 268 268 270 271 271 273 275 277 278 278 278 279 280 280 281 282 282 282 283 285 288 289 290 292 293 294 294 295 296 297 298 299 299 300 301
235 237 238 239 241 242 243 244 243 242 242 243 243 242 242 241 242 243 245 245 245 244 244 243 242 243 243 241 241 244 247 249 250 251 252 253 253 253 253 254 255 256 258 260 262 263 265 266 265 266 267 267 270 272 272 273 275 277 278 278 279 279 280 281 283 283 282 281 282 284 286 288 289 290 291 292 293 295 296 297 298 299 299 299 300
237 238 239 240 241 242 243 244 244 243 242 243 243 242 243 243 243 244 246 247 247 247 246 245 242 242 242 242 241 244 247 249 251 251 252 254 254 253 254 255 255 256 256 258 259 262 264 265 265 266 268 269 270 272 273 274 275 276 277 278 278 279 280 281 283 283 283 282 282 283 285 287 289 290 291 292 293 295 296 297 297 298 298 297 298
239 240 240 241 241 242 242 243 243 242 242 242 242 242 242 243 244 245 246 247 248 248 248 247 243 240 242 243 242 244 247 250 252 253 254 255 254 253 254 255 256 256 257 257 259 261 263 265 266 267 268 270 271 272 273 274 275 276 277 277 278 279 280 282 282 283 284 284 283 283 284 286 288 290 291 291 292 294 294 294 295 296 296 297 298
238 239 240 241 241 242 242 243 244 243 243 243 243 243 243 244 244 245 245 246 247 248 248 247 243 241 242 244 244 244 247 250 253 254 255 255 255 253 253 254 255 256 258 259 260 261 262 265 268 269 269 270 271 272 273 274 275 276 277 278 278 279 281 282 283 284 285 285 284 284 286 287 288 290 291 292 293 293 293 294 295 295 295 296 297
237 237 238 239 240 240 242 242 241 241 241 241 241 242 242 242 242 243 244 244 246 247 247 245 243 242 243 243 244 245 247 250 253 255 256 256 255 253 253 253 254 256 258 260 260 260 262 265 269 271 271 271 272 273 274 275 275 276 277 278 278 279 281 282 283 284 285 285 285 286 287 288 289 290 291 292 293 293 293 294 295 295 296 296 296
236 236 236 236 237 237 237 237 235 235 236 237 238 237 238 238 238 240 242 242 243 244 245 244 244 244 243 243 245 247 249 250 253 255 256 256 255 254 253 253 254 255 257 260 260 259 262 266 270 272 272 273 273 273 274 274 275 276 276 277 278 279 280 281 282 283 284 284 285 286 287 288 289 291 292 292 293 293 294 294 295 295 296 297 297
232 233 234 234 234 232 230 230 231 231 233 234 232 231 233 235 236 237 238 239 239 240 241 243 244 245 245 245 245 247 249 250 250 252 254 254 255 255 254 254 255 255 256 259 260 261 264 268 270 271 272 274 274 274 275 275 275 276 278 278 278 279 279 280 281 282 283 283 284 285 286 287 289 290 292 293 293 294 295 295 296 296 296 296 296
230 231 232 232 231 229 226 227 230 230 229 230 229 229 232 234 235 235 237 237 237 238 239 240 243 245 246 244 243 244 247 248 248 249 250 252 253 255 255 257 257 256 255 258 262 264 267 270 271 272 272 273 274 276 277 277 277 278 279 279 279 279 279 279 281 282 283 284 284 285 287 288 289 290 292 293 294 294 295 295 296 297 297 297 296
229 229 229 227 226 226 227 229 230 229 228 229 231 233 234 232 231 232 234 234 234 235 235 236 239 242 242 240 239 241 243 244 244 245 246 248 250 253 255 257 258 257 256 258 262 266 269 272 274 274 273 273 274 276 277 279 280 280 280 280 280 280 279 280 282 283 285 285 286 288 289 290 292 292 293 294 295 296 296 296 296 297 297 298 298
225 225 226 226 226 226 228 230 232 230 230 231 233 234 234 232 232 233 234 235 235 236 235 234 234 235 235 235 234 234 235 237 239 239 241 243 246 249 253 255 258 259 258 259 262 266 269 272 274 275 275 275 275 276 277 279 281 281 280 280 281 279 279 280 282 283 285 286 287 288 290 291 293 294 295 296 297 297 298 298 299 299 298 299 299
225 224 225 226 227 226 227 229 231 232 232 234 236 236 235 236 237 238 238 239 241 240 238 235 234 234 236 236 235 234 236 239 240 238 239 241 244 249 254 257 261 262 262 264 266 267 270 273 274 276 277 276 276 277 277 279 280 280 280 280 280 279 280 281 282 282 283 285 286 288 289 291 292 293 294 295 296 296 297 298 299 299 299 299 299
227 226 225 226 227 228 229 229 231 232 233 236 238 238 238 239 241 242 241 242 243 242 239 237 237 239 239 239 238 238 237 237 237 237 239 242 246 251 255 258 261 263 265 267 269 271 273 275 275 277 277 277 277 278 278 280 281 280 280 280 280 280 282 282 281 282 282 283 285 287 289 290 291 292 292 293 293 294 296 297 297 297 298 298 297
228 228 227 227 228 229 230 230 230 232 235 238 240 240 240 240 242 243 244 245 244 243 241 240 241 242 241 241 241 239 237 238 240 242 245 250 253 256 260 263 265 266 267 268 269 270 272 273 274 275 276 276 277 277 277 279 280 279 279 279 279 281 282 281 281 282 282 283 284 286 288 289 289 290 290 291 291 292 294 294 295 295 296 297 297
228 228 229 229 229 229 230 231 231 233 235 237 238 239 241 242 241 241 243 244 244 244 242 242 244 245 244 245 245 242 240 243 247 250 253 257 260 263 266 270 271 271 273 273 272 271 272 273 273 274 275 276 277 277 278 279 280 279 279 280 279 281 282 282 282 283 282 283 285 286 288 289 289 289 290 290 291 292 293 293 294 294 295 296 296
228 228 229 230 231 231 231 232 233 234 235 236 237 238 242 244 242 241 242 244 245 244 243 242 244 245 245 246 247 245 244 247 252 256 259 262 266 268 271 274 274 274 275 276 275 274 275 276 276 277 277 278 279 280 280 281 281 281 281 281 281 282 282 283 284 284 284 285 286 288 289 290 290 291 291 291 292 292 293 293 294 294 294 295 295
229 229 230 231 232 233 233 233 234 235 236 237 238 239 241 243 244 244 244 245 245 245 245 245 246 248 248 248 249 249 250 254 257 259 261 265 268 270 273 275 276 276 277 278 278 278 278 279 279 280 281 281 282 283 283 283 283 283 283 283 283 283 284 285 286 286 286 286 287 288 289 290 291 292 292 292 293 293 293 294 294 294 294 294 294
231 231 232 232 233 234 234 234 235 236 237 238 240 240 242 243 245 246 247 247 247 247 246 247 248 250 250 251 251 253 255 258 260 261 263 266 269 271 273 275 276 278 278 278 277 278 279 280 280 281 282 282 283 284 284 284 285 285 285 285 285 285 286 287 288 287 287 287 288 289 289 290 290 291 292 292 293 293 293 293 293 293 293 293 293
233 234 234 234 234 235 236 237 237 237 238 239 241 242 243 244 246 247 248 248 249 250 249 249 250 251 252 254 255 256 258 260 262 263 265 268 270 271 273 275 277 278 278 277 277 278 279 280 280 281 281 282 282 283 283 284 284 285 285 285 285 286 286 287 288 288 288 289 289 289 290 290 290 291 291 292 292 292 292 292 292 291 292 292 292
235 236 236 235 235 236 238 238 239 240 240 241 242 243 244 245 246 248 249 250 251 252 253 253 253 253 254 256 257 259 261 262 264 265 267 269 271 272 273 275 276 277 277 277 278 279 279 279 280 280 280 281 281 281 282 283 283 283 284 284 285 285 286 287 287 287 288 288 288 289 289 289 290 291 291 291 292 292 292 292 292 292 292 292 292
237 237 237 237 237 238 238 239 240 241 242 243 244 245 246 246 247 248 250 251 253 254 255 255 256 256 257 258 259 260 262 263 265 267 268 269 271 272 273 274 275 275 275 276 277 278 279 279 279 280 280 280 281 281 282 283 283 283 284 284 284 285 286 286 286 287 288 288 288 288 289 289 290 290 290 291 291 291 291 292 291 291 292 292 292
239 239 238 238 238 239 239 240 241 242 243 244 244 245 247 247 248 249 250 251 252 254 255 256 258 259 259 259 259 261 262 264 265 267 268 269 270 270 272 273 274 273 274 275 276 277 278 278 279 279 280 281 282 282 282 283 283 283 284 284 284 285 285 286 286 287 288 288 288 288 289 289 289 290 290 290 290 290 290 290 290 290 291 291 291
239 239 239 239 240 241 241 241 243 244 244 244 245 246 247 248 249 250 250 251 252 253 254 256 258 259 260 261 262 262 261 262 264 266 268 269 269 270 271 272 273 273 273 274 275 276 277 277 278 279 279 280 281 282 283 283 283 284 284 284 285 285 285 286 287 287 287 287 288 288 288 289 289 289 289 289 289 289 290 290 290 290 290 291 291
239 240 240 240 241 242 242 243 245 245 245 245 246 247 247 248 249 250 251 251 252 253 254 255 256 258 259 260 262 262 262 263 265 266 267 268 269 270 271 272 273 273 274 274 275 276 276 276 277 278 278 279 280 280 281 283 283 284 284 285 285 285 285 286 286 286 286 286 287 287 287 288 288 289 289 289 289 289 289 289 290 290 290 291 290
240 241 241 241 241 241 242 244 245 245 244 245 247 247 247 248 249 250 251 252 252 253 254 255 256 257 258 259 261 263 263 265 266 266 266 267 269 270 271 272 273 274 274 275 275 276 276 277 277 278 279 279 280 280 281 282 282 283 284 285 285 285 286 286 286 286 286 286 286 287 287 287 288 288 288 288 288 288 288 289 289 289 290 289 289
241 242 241 240 240 241 242 242 243 243 243 245 246 247 247 249 250 251 252 252 252 253 255 255 256 257 258 259 262 263 263 265 267 267 267 268 269 270 271 271 272 273 274 275 276 276 277 277 278 279 279 280 280 281 282 282 283 283 284 284 285 285 285 286 286 286 286 286 286 287 287 287 288 288 288 287 287 288 288 288 288 288 288 288 288
240 241 240 239 239 241 242 242 242 243 243 244 246 246 247 248 250 251 253 253 253 254 255 256 258 258 259 260 263 264 263 263 266 268 268 269 269 270 271 271 272 274 275 276 277 277 278 279 280 280 281 281 282 282 283 283 283 284 284 284 284 285 285 285 286 286 286 287 287 287 287 288 288 288 288 288 288 288 288 288 288 288 288 288 288
240 240 239 238 238 240 242 242 242 242 243 244 245 246 246 247 249 250 252 253 253 254 255 256 258 259 260 262 265 264 262 262 265 268 269 269 270 271 272 273 274 275 276 277 278 278 279 280 281 282 282 283 283 284 284 284 284 285 285 285 285 286 286 286 286 287 287 287 287 287 288 288 288 288 288 288 288 288 288 288 288 288 288 288 288
240 240 239 238 238 239 241 241 241 242 242 243 244 245 245 247 248 250 251 252 253 254 255 256 257 259 261 263 264 264 262 263 266 268 269 270 271 272 273 274 275 276 277 278 279 280 280 281 282 283 283 284 284 284 285 285 286 286 286 286 286 287 287 287 287 287 287 287 287 288 288 288 288 288 288 289 288 288 288 288 288 288 288 288 288
239 239 240 239 239 240 241 241 241 241 242 243 244 245 245 247 249 250 250 251 253 254 255 256 257 259 261 263 264 264 264 265 267 268 269 271 272 273 274 275 276 277 278 279 280 281 281 282 283 283 284 284 285 285 285 286 286 286 286 286 286 286 287 287 287 287 287 287 287 288 288 288 289 289 289 289 288 288 288 288 288 288 288 288 287
238 238 238 239 240 240 241 240 241 241 242 243 244 245 246 247 249 250 251 252 253 254 256 257 258 259 261 262 264 265 266 267 268 269 270 271 273 273 275 276 278 278 279 279 280 281 282 282 283 284 284 284 285 285 286 286 286 286 287 287 287 287 287 287 288 288 288 288 288 288 288 289 289 289 289 289 288 288 288 288 288 288 288 288 287
238 238 237 238 239 239 239 240 240 241 241 242 243 244 246 247 248 249 251 252 254 255 256 258 259 260 262 263 264 266 267 268 269 271 272 273 274 275 276 278 279 279 279 280 281 282 283 283 284 284 285 285 286 286 287 287 287 288 288 288 288 288 289 289 289 289 289 289 289 289 289 289 289 289 289 289 288 288 288 288 288 288 288 288 288
239 239 238 238 238 238 239 239 240 240 240 242 243 244 245 247 248 249 251 253 254 256 257 259 260 261 263 264 265 267 268 270 271 272 273 275 276 277 278 279 280 280 280 281 282 283 284 284 285 285 286 286 287 287 288 288 288 288 289 289 289 289 289 290 290 290 290 290 290 290 290 290 289 289 289 289 289 288 288 288 288 288 288 288 288
241 240 240 240 240 239 239 240 240 240 241 243 244 245 246 247 249 250 252 253 254 256 257 259 260 262 263 264 266 268 270 271 272 273 274 275 276 277 278 279 280 281 281 282 283 283 284 285 286 286 287 287 288 288 289 289 289 289 289 289 289 289 290 290 290 290 291 291 291 291 290 290 290 290 289 289 289 288 288 288 288 288 288 288 288
242 241 241 241 241 241 241 241 242 242 243 244 244 245 247 248 249 251 252 253 254 256 258 259 261 262 264 265 267 268 270 271 272 273 274 275 276 277 279 280 281 282 282 283 284 285 285 286 287 287 288 288 289 289 289 290 290 290 289 289 290 290 291 291 291 291 291 291 291 291 291 290 290 290 289 289 288 288 288 288 288 288 288 288 288
242 242 241 240 240 241 242 243 244 244 245 245 246 247 248 249 250 251 253 254 256 257 259 261 262 264 265 266 267 269 270 272 273 274 275 276 277 278 280 281 282 283 283 284 285 286 287 287 288 288 289 289 290 290 290 290 290 290 290 290 291 292 292 292 292 292 292 291 291 291 290 290 289 289 289 289 288 288 288 288 288 288 288 288 288
241 241 240 239 239 240 241 242 243 245 245 246 247 248 249 250 252 253 254 256 257 259 260 262 264 265 266 268 269 270 272 273 275 276 277 278 279 280 281 282 283 284 284 285 286 287 287 288 288 289 289 290 290 291 291 291 291 290 291 291 292 292 293 293 293 292 292 292 291 290 290 290 290 289 289 289 289 288 288 289 289 288 288 288 288